Weather in Molėtai

Lithuania     55°13′45″N   25°25′03″E
temp.,
°C
wind,
m/s
gust,
m/s
humid.,
%
clouds,
%
prec.,
mm/h
press.,
hPa
HPBL,
m
28 july, wed
wed2800:00+18ssw279675 0.1 1012168
03:00+17sw2297100 0.1 101142
06:00+17wsw239728 0.0 101175
09:00+21w34774 0.0 1012437
12:00+25w345663 0.0 10111062
15:00+27w464893 0.0 10101907
18:00+27w465084 0.0 10101795
21:00+21wsw22745 0.0 101019
29 july, thu
thu2900:00+19ssw117570 0.0 100911
03:00+19sw2477100 0.0 100989
06:00+18ssw3997100 1.3 1009285
09:00+19wsw3791100 1.3 1008393
12:00+24w45625 0.0 10081067
15:00+26w564730 0.0 10071986
18:00+23wnw4857100 0.0 1007811
21:00+19wsw2280100 0.1 100735
30 july, fri
fri3000:00+18wsw258251 0.0 1008122
03:00+15w378867 0.1 1008189
06:00+13wsw259247 0.0 1008103
09:00+19sw51071100 0.3 10081028
12:00+22wsw71241100 0.1 10072422
15:00+23wsw61144100 0.1 10062510
18:00+20sw5115799 0.0 10061591
21:00+18sw512620 0.0 1005553
31 july, sat
sat3100:00+16sw512700 0.0 1005387
03:00+14sw515763 0.0 1005519
06:00+13sw413765 0.0 1006375
09:00+18wsw5106392 0.0 1006554
12:00+22wsw5746100 0.0 10061110
15:00+24sw5746100 0.0 10051245
18:00+21ssw3769100 0.0 1004451
21:00+17sw389277 0.5 1004226
1 august, sun
sun100:00+16sw3798100 0.4 1004164
03:00+14w37961 0.4 1005159
06:00+12sw311950 0.0 1005273
09:00+17sw510770 0.0 1006629
12:00+21wsw685991 0.0 10071457
15:00+21wsw5758100 0.1 10081687
18:00+20wsw366669 0.0 1008786
21:00+17wnw1179100 0.0 100811